Wetbulb
58.38 58.28 58.43 58.61 58.67 59.12 59.74 60.21 60.34 60.49 60.70 60.95 61.13 61.64 61.83 61.95 60.65 58.14 52.69 56.04 58.20 62.25 58.84 52.64 51.57 50.38 50.29 49.20 49.05 45.64 38.49 35.64 37.26 38.15 40.49 43.49 42.66 44.73 45.74 44.52 45.02 45.96 44.28 46.00 48.15
58.02 57.89 57.97 58.06 58.10 58.42 58.96 59.54 59.69 59.97 60.46 60.46 60.64 61.30 61.63 61.44 56.16 53.85 58.94 63.20 63.50 62.16 52.75 49.43 47.49 48.03 45.71 46.38 46.72 42.09 37.27 38.38 40.12 40.66 40.58 43.49 43.82 44.36 42.61 42.72 42.52 43.57 45.92 47.91 48.18
58.06 57.64 57.55 57.56 57.73 58.05 58.54 59.02 59.43 59.94 60.25 60.29 60.55 61.02 61.16 59.70 52.35 52.65 61.87 63.25 63.30 60.13 53.55 50.86 50.34 48.57 43.62 44.27 43.18 42.31 38.29 40.95 42.40 44.29 44.83 43.88 43.03 45.00 42.68 40.32 41.55 43.21 44.17 45.84 45.65
58.57 57.85 57.45 57.44 57.54 57.89 58.42 58.82 59.23 59.75 59.79 59.98 60.40 60.79 60.42 55.16 41.06 54.23 61.57 62.76 62.58 55.17 52.40 49.92 48.24 43.99 41.72 40.82 44.73 38.92 43.92 43.65 46.13 45.61 44.55 42.93 44.57 42.50 42.90 42.44 44.93 44.56 45.44 44.82 44.53
58.55 58.09 57.99 57.93 57.63 58.00 58.40 58.75 59.07 59.56 59.47 59.86 60.59 60.73 55.09 47.60 49.25 56.46 60.45 60.46 55.54 52.50 50.20 48.75 44.88 43.96 40.36 40.96 42.90 40.33 42.59 44.90 45.66 45.43 43.97 45.47 42.95 42.78 41.59 42.63 44.31 45.50 45.25 43.60 43.56
58.63 58.16 57.87 57.82 58.03 58.08 58.39 58.64 58.91 59.34 59.34 59.72 60.69 60.09 51.36 43.01 55.99 57.16 56.72 53.98 53.12 50.91 48.64 47.88 45.77 45.62 42.73 42.22 40.82 42.18 43.20 43.71 45.06 45.38 45.26 43.69 42.59 43.30 41.61 42.75 42.91 44.22 42.62 42.09 43.01
58.97 58.51 58.15 58.08 58.22 58.53 58.74 58.79 58.85 58.95 59.00 59.61 60.13 56.55 49.44 47.34 55.77 54.24 53.70 51.57 51.59 50.56 48.62 49.37 48.64 45.19 44.49 41.82 44.15 42.94 40.19 42.49 43.73 43.73 43.28 43.88 40.55 41.22 42.77 42.73 41.96 42.12 41.08 41.76 42.32
58.89 58.44 58.31 58.25 58.31 58.52 58.81 59.08 59.01 58.72 58.97 59.78 59.71 53.16 45.89 53.73 54.11 54.85 53.33 51.42 51.83 51.48 50.97 50.08 49.37 47.15 44.72 44.16 42.70 38.70 37.92 35.04 42.29 43.01 42.76 42.79 36.65 43.13 42.20 41.53 40.32 40.24 38.89 40.61 41.40
58.43 58.12 58.26 58.42 58.31 58.33 58.60 58.78 58.60 59.09 59.40 59.73 52.75 49.24 45.49 55.01 52.16 54.81 53.24 50.61 50.33 50.32 49.59 51.71 48.92 44.23 42.97 38.33 36.11 36.76 32.56 34.95 39.67 42.84 41.30 39.78 37.16 40.40 41.76 40.89 39.69 38.75 38.60 39.74 39.48
58.51 58.09 58.28 58.44 58.44 58.43 58.51 59.04 58.60 57.71 57.89 56.94 54.66 45.27 48.82 47.40 50.53 53.29 51.44 51.47 48.76 47.44 46.19 45.20 42.82 38.51 37.88 35.84 31.03 33.98 33.63 36.40 36.65 40.84 39.23 37.57 37.59 40.00 40.91 40.46 39.59 38.64 38.51 38.75 38.89
58.78 58.56 58.61 58.56 58.67 59.08 57.12 54.53 50.06 48.05 50.43 46.77 47.39 46.81 47.92 48.41 51.04 49.89 50.99 49.42 48.21 44.96 39.75 41.95 37.10 34.99 39.18 39.07 40.26 38.32 36.21 34.97 38.29 42.22 38.81 37.70 37.73 39.47 40.75 39.14 38.02 38.25 38.67 38.84 38.40
58.89 58.80 58.94 59.01 59.16 59.14 55.59 52.22 50.51 49.52 44.14 50.51 49.87 49.54 50.57 49.22 44.83 48.14 50.24 44.96 43.54 39.00 40.82 37.88 34.31 41.33 42.75 41.61 40.09 38.55 36.24 36.19 38.73 41.96 39.08 38.10 37.61 40.22 40.14 40.35 40.90 40.89 39.98 38.85 35.95
58.50 58.86 59.01 59.18 58.94 57.20 54.35 54.10 54.44 52.80 46.30 49.61 50.77 49.44 49.49 48.67 45.53 45.57 47.70 45.75 42.19 40.15 39.59 36.40 40.52 43.93 42.04 39.47 38.70 37.42 35.82 35.30 36.83 39.30 37.93 36.48 35.43 37.04 40.31 41.14 40.89 42.60 40.85 39.81 36.99
55.99 57.40 58.75 59.00 55.73 55.56 54.12 57.45 54.66 54.11 41.34 43.56 47.74 48.98 47.91 48.59 44.33 49.87 49.00 46.15 42.52 39.94 41.15 38.96 43.23 41.42 39.04 38.73 39.61 35.03 40.22 39.37 38.31 34.45 29.95 35.68 30.00 34.83 37.95 38.09 39.49 41.53 38.54 37.16 36.14
54.15 55.34 57.67 58.50 55.76 53.62 55.60 57.32 56.08 53.17 32.33 44.73 45.04 50.17 48.46 45.79 44.21 43.58 47.24 45.44 40.10 40.12 41.11 37.90 38.86 38.72 37.72 38.81 40.28 37.52 39.20 37.12 36.23 33.14 31.59 32.29 29.69 33.47 39.59 39.37 38.35 40.98 38.07 36.33 36.03
53.23 53.31 55.96 57.15 56.32 55.95 57.57 56.31 54.37 41.16 30.66 40.84 42.51 41.61 42.20 43.67 41.77 42.53 42.78 44.66 44.31 40.02 39.06 38.91 40.28 39.84 39.98 38.59 39.97 40.21 37.32 36.42 34.03 31.80 26.30 31.45 32.14 35.29 36.05 39.40 40.18 38.71 38.49 35.63 35.53
52.94 52.71 54.37 57.57 52.67 56.94 56.58 52.80 40.36 31.81 43.37 38.55 38.39 40.65 40.11 39.39 39.13 39.39 37.88 36.39 35.74 32.33 32.32 36.92 38.25 38.95 40.62 36.97 37.67 37.38 34.13 27.04 25.27 23.99 25.38 32.00 30.46 35.66 39.49 39.27 40.49 38.65 37.01 34.91 35.60
52.22 52.88 53.90 54.66 56.52 56.87 54.21 44.76 30.64 37.20 40.48 42.76 41.11 40.21 37.54 39.56 38.75 38.52 36.15 33.83 37.48 36.20 33.15 31.82 31.66 37.59 39.65 39.55 35.40 34.26 34.45 27.33 21.11 23.48 25.63 30.62 27.46 34.34 38.12 38.40 39.00 39.60 38.13 34.65 33.91
51.87 51.85 53.25 53.90 55.84 56.19 48.71 37.64 35.34 37.59 43.08 41.21 40.07 36.38 36.54 39.11 38.22 36.55 35.22 34.98 37.45 38.11 33.46 32.43 33.47 37.85 38.51 40.03 39.92 33.57 31.01 38.61 30.42 20.72 24.30 29.47 33.09 38.32 35.52 35.02 35.07 34.85 33.80 32.05 31.77
47.70 47.59 49.38 53.70 56.17 52.65 43.39 38.11 39.49 43.93 45.29 43.38 37.82 39.24 35.54 37.34 36.59 35.44 34.39 38.25 38.99 40.63 41.20 38.01 33.29 36.80 36.49 39.41 38.57 36.89 38.58 30.77 32.82 24.93 22.70 26.84 28.40 33.13 33.06 34.70 33.97 32.72 31.77 31.42 30.52
45.89 42.57 48.28 55.35 54.80 45.80 35.86 38.71 42.04 45.80 45.68 43.12 40.71 40.02 39.25 36.74 37.02 35.89 36.48 39.45 41.02 39.79 42.18 38.99 36.04 32.96 34.85 33.53 34.42 35.03 32.72 36.17 35.81 32.10 25.01 24.64 28.44 35.85 36.50 36.29 34.45 33.36 33.20 31.31 29.93
43.58 36.78 49.54 54.51 42.05 41.84 36.26 40.32 43.16 44.00 45.82 44.80 44.58 42.67 41.25 40.02 37.01 35.71 36.34 39.58 42.78 41.38 37.22 39.58 35.98 29.85 32.43 36.18 36.59 35.49 35.89 37.24 31.46 29.82 30.14 27.81 31.82 35.80 34.96 36.28 36.00 34.69 33.93 31.87 30.94
40.69 41.01 48.85 50.61 36.13 36.91 38.80 39.32 41.68 41.10 42.76 43.14 42.39 43.53 43.51 40.53 37.24 39.12 38.27 42.91 42.52 41.03 38.51 40.16 33.48 29.86 27.95 34.95 36.02 33.35 35.01 38.24 38.66 34.19 30.11 29.83 31.34 34.62 34.83 34.64 34.71 33.46 33.21 32.05 30.06
39.42 34.44 39.63 44.73 43.36 38.86 36.29 36.79 38.19 43.64 41.28 43.34 42.36 44.18 41.94 40.05 41.88 39.08 39.79 41.62 42.45 42.33 43.11 42.65 34.96 30.19 29.67 30.35 33.71 30.46 32.83 34.58 35.76 31.78 31.44 33.01 35.10 37.44 32.68 33.52 33.95 33.32 33.44 31.91 30.14
39.14 35.19 36.12 35.19 36.09 39.71 39.57 38.16 36.02 36.12 42.00 43.23 40.67 41.42 40.82 37.90 39.12 38.94 40.09 38.59 40.54 41.95 42.05 41.37 34.29 35.21 35.55 35.20 32.61 30.42 30.77 32.63 32.05 34.78 31.83 34.54 34.40 38.71 38.88 35.83 35.73 35.50 33.89 31.69 29.99
35.43 33.11 38.26 36.09 35.51 35.23 35.75 33.86 35.81 37.68 38.85 38.38 38.53 40.38 40.91 37.91 37.44 34.93 39.99 40.22 39.01 38.45 38.77 40.23 34.92 34.80 34.33 35.17 35.50 33.92 35.28 34.98 35.29 35.10 35.39 36.18 35.18 41.96 37.98 37.95 34.53 34.99 34.17 31.86 30.61
40.20 41.68 36.25 35.03 32.91 32.72 33.09 35.23 35.30 37.86 39.92 39.04 39.08 38.52 39.01 40.59 42.55 43.63 43.85 43.61 41.95 39.63 36.09 35.14 34.33 31.89 30.42 33.69 32.25 30.01 33.36 34.01 35.59 37.39 37.03 32.91 37.45 41.81 37.15 36.52 34.64 33.90 34.75 33.20 32.22
MSLP
1018.77 1018.83 1018.58 1018.44 1018.57 1018.67 1018.44 1018.37 1018.31 1018.16 1018.03 1017.73 1017.28 1016.88 1016.58 1016.21 1015.39 1015.45 1015.11 1014.88 1014.74 1014.57 1014.55 1014.30 1013.97 1013.77 1013.91 1014.25 1014.44 1014.73 1015.70 1015.99 1015.42 1014.75 1014.85 1014.62 1014.71 1014.82 1015.19 1015.84 1016.96 1017.94 1018.53 1018.98 1019.01
1018.89 1018.85 1018.87 1018.57 1018.43 1018.52 1018.51 1018.38 1018.26 1018.22 1017.98 1017.63 1017.22 1016.84 1016.47 1016.24 1015.90 1015.29 1014.95 1014.65 1014.61 1014.66 1014.55 1014.39 1014.08 1013.87 1014.21 1014.45 1014.71 1015.08 1015.96 1015.65 1015.29 1014.99 1014.95 1014.79 1014.91 1015.28 1015.77 1016.67 1018.01 1018.96 1019.15 1019.24 1019.40
1018.77 1018.86 1018.93 1018.86 1018.67 1018.62 1018.54 1018.50 1018.33 1018.11 1017.84 1017.53 1017.15 1016.74 1016.43 1016.22 1015.93 1015.13 1014.79 1014.64 1014.62 1014.60 1014.60 1014.29 1014.06 1014.02 1014.34 1014.47 1014.82 1015.17 1015.58 1015.37 1015.38 1015.12 1015.09 1015.14 1015.29 1015.52 1016.22 1017.58 1018.35 1018.87 1019.51 1019.72 1019.98
1018.83 1018.70 1018.80 1018.86 1018.77 1018.69 1018.55 1018.40 1018.20 1018.01 1017.80 1017.48 1017.19 1016.60 1016.00 1015.79 1015.70 1014.84 1014.74 1014.67 1014.68 1014.68 1014.59 1014.35 1014.32 1014.43 1014.58 1014.79 1014.84 1015.36 1015.27 1015.26 1015.32 1015.35 1015.40 1015.63 1015.71 1016.04 1016.70 1017.80 1018.56 1019.05 1019.59 1020.08 1020.53
1018.90 1018.69 1018.61 1018.60 1018.60 1018.58 1018.45 1018.28 1018.11 1018.00 1017.79 1017.46 1017.08 1016.49 1015.78 1015.53 1014.97 1014.67 1014.71 1014.74 1014.69 1014.65 1014.61 1014.57 1014.56 1014.54 1014.83 1014.93 1015.16 1015.48 1015.62 1015.51 1015.43 1015.58 1015.77 1015.99 1016.23 1016.69 1017.56 1018.40 1018.93 1019.37 1019.95 1020.57 1020.87
1018.85 1018.72 1018.61 1018.49 1018.40 1018.34 1018.31 1018.23 1018.04 1017.88 1017.76 1017.42 1016.96 1016.49 1016.28 1015.74 1014.56 1014.68 1014.71 1014.74 1014.76 1014.70 1014.60 1014.60 1014.79 1014.79 1015.01 1015.29 1015.54 1015.80 1015.90 1015.88 1015.68 1015.74 1015.94 1016.38 1016.71 1017.20 1017.88 1018.58 1019.32 1019.68 1020.33 1020.83 1021.08
1018.62 1018.63 1018.60 1018.52 1018.35 1018.25 1018.18 1018.17 1017.95 1017.73 1017.55 1017.28 1017.01 1016.71 1016.33 1015.40 1014.64 1014.68 1014.82 1014.80 1014.78 1014.77 1014.74 1014.74 1014.79 1014.94 1015.29 1015.67 1015.91 1016.07 1016.39 1016.21 1015.72 1015.68 1016.19 1016.59 1017.30 1017.27 1017.63 1018.73 1019.48 1019.97 1020.44 1020.93 1021.24
1018.48 1018.46 1018.48 1018.38 1018.31 1018.10 1017.97 1017.88 1017.79 1017.65 1017.32 1017.07 1016.97 1016.88 1015.82 1014.78 1014.69 1014.80 1014.84 1014.94 1014.97 1014.87 1014.97 1014.99 1015.01 1015.35 1015.70 1016.20 1016.39 1016.73 1016.95 1016.88 1015.70 1015.69 1016.36 1016.81 1017.00 1016.94 1017.62 1018.51 1019.41 1020.04 1020.60 1020.92 1021.38
1018.22 1018.24 1018.22 1018.25 1018.15 1018.00 1017.75 1017.56 1017.46 1017.41 1017.25 1016.85 1016.89 1016.74 1015.78 1014.81 1014.80 1014.68 1014.74 1015.08 1015.26 1015.46 1015.37 1015.33 1015.46 1016.10 1016.52 1017.09 1017.59 1017.53 1017.56 1017.23 1016.43 1015.95 1016.42 1017.10 1017.28 1017.29 1017.96 1018.61 1019.26 1019.82 1020.35 1020.79 1021.44
1017.82 1017.90 1017.99 1018.00 1017.96 1017.89 1017.65 1017.28 1017.12 1017.26 1017.00 1016.81 1016.65 1016.87 1015.61 1015.16 1014.95 1014.80 1014.89 1015.11 1015.50 1015.91 1016.12 1016.10 1016.40 1016.95 1017.45 1017.70 1018.06 1017.79 1017.85 1017.28 1016.83 1016.47 1016.60 1017.15 1017.01 1017.41 1017.93 1018.48 1018.89 1019.31 1019.80 1020.48 1020.99
1017.35 1017.42 1017.60 1017.69 1017.76 1017.80 1017.73 1017.16 1017.48 1017.44 1016.85 1015.86 1015.64 1015.45 1015.21 1015.43 1015.18 1015.25 1015.15 1015.33 1015.72 1016.32 1016.70 1016.81 1017.26 1017.05 1016.31 1017.00 1016.99 1017.22 1017.50 1017.46 1016.45 1016.27 1016.53 1016.64 1016.72 1016.77 1017.16 1017.93 1018.33 1018.68 1019.08 1019.79 1020.66
1016.95 1017.12 1017.17 1017.21 1017.51 1017.55 1017.87 1017.33 1016.69 1016.96 1016.47 1015.21 1015.10 1015.02 1014.66 1014.87 1015.28 1015.36 1015.35 1015.81 1016.12 1016.52 1016.91 1017.40 1016.98 1016.35 1016.59 1016.92 1017.12 1017.20 1017.37 1017.18 1016.74 1016.15 1016.58 1016.51 1016.21 1015.98 1016.32 1016.49 1016.56 1017.01 1017.84 1019.01 1020.26
1016.55 1016.63 1016.80 1016.98 1017.05 1017.49 1017.48 1016.89 1016.11 1016.30 1016.66 1014.76 1013.99 1013.85 1013.97 1014.35 1014.58 1014.90 1015.39 1015.52 1015.88 1016.45 1016.66 1016.67 1016.06 1015.47 1016.57 1016.81 1017.26 1017.19 1017.00 1017.11 1017.05 1016.53 1016.58 1016.46 1015.49 1015.42 1015.01 1014.99 1015.10 1015.59 1016.57 1017.98 1019.04
1016.85 1016.73 1016.66 1016.65 1017.38 1017.07 1016.93 1016.06 1016.29 1016.47 1016.52 1014.33 1013.49 1012.79 1013.16 1013.79 1014.17 1013.72 1014.26 1014.80 1015.50 1015.64 1016.47 1016.31 1015.59 1015.78 1016.32 1016.51 1016.76 1016.98 1016.63 1016.83 1017.21 1017.56 1017.38 1016.89 1014.45 1014.19 1014.27 1014.31 1014.56 1014.62 1015.74 1017.19 1018.77
1017.03 1016.93 1016.65 1016.35 1017.11 1016.92 1016.53 1016.05 1016.42 1016.94 1015.93 1013.28 1013.15 1013.10 1013.17 1013.63 1013.80 1014.36 1014.20 1014.36 1014.74 1015.10 1015.76 1015.20 1015.14 1015.45 1015.85 1016.01 1016.26 1016.53 1016.60 1017.16 1017.48 1018.02 1018.06 1017.63 1017.30 1013.06 1012.95 1013.61 1013.65 1013.94 1015.48 1016.77 1018.18
1016.90 1016.84 1016.73 1016.44 1016.76 1016.12 1016.17 1016.61 1016.82 1016.57 1014.26 1013.49 1013.42 1013.22 1013.69 1013.99 1014.27 1014.75 1014.59 1014.44 1014.62 1015.23 1015.26 1015.30 1015.20 1015.21 1015.34 1015.78 1015.98 1016.52 1017.35 1018.05 1018.54 1019.02 1018.35 1017.64 1017.41 1010.05 1012.49 1012.31 1012.56 1013.84 1015.13 1016.68 1018.08
1016.76 1016.64 1016.63 1015.81 1015.90 1015.92 1016.34 1016.53 1016.38 1014.35 1013.44 1013.07 1013.32 1013.44 1013.62 1014.28 1014.69 1014.78 1015.03 1014.93 1015.01 1015.81 1015.55 1015.42 1015.09 1015.20 1015.26 1015.98 1016.44 1016.77 1017.99 1019.21 1019.93 1020.23 1018.33 1017.08 1016.71 1012.74 1012.14 1011.65 1012.13 1013.19 1015.01 1016.43 1017.71
1016.56 1016.19 1015.65 1015.67 1015.63 1015.97 1016.06 1016.17 1015.39 1014.14 1012.82 1011.96 1012.62 1013.55 1014.00 1014.18 1014.66 1014.93 1015.31 1015.20 1014.92 1015.15 1015.29 1015.29 1014.84 1014.53 1014.97 1014.98 1015.80 1016.70 1017.37 1018.62 1019.56 1020.03 1019.13 1017.81 1015.52 1012.43 1011.74 1011.99 1012.31 1012.97 1014.60 1016.53 1018.14
1016.26 1015.48 1015.09 1014.90 1015.37 1015.82 1016.15 1014.28 1013.41 1013.44 1012.60 1012.05 1012.73 1013.42 1013.65 1013.72 1014.24 1014.93 1015.10 1014.64 1013.90 1014.33 1014.70 1014.61 1014.40 1014.12 1014.40 1014.57 1015.13 1016.79 1017.22 1017.16 1018.91 1020.33 1019.88 1017.26 1014.55 1012.36 1012.10 1012.64 1013.37 1014.16 1015.43 1016.98 1018.36
1016.53 1015.63 1014.09 1014.25 1014.93 1015.64 1015.43 1013.86 1013.32 1012.56 1011.72 1011.98 1012.36 1012.75 1012.56 1012.97 1013.86 1014.26 1014.38 1013.27 1013.19 1012.81 1013.02 1013.71 1014.49 1014.82 1014.97 1014.95 1015.32 1015.63 1016.31 1017.66 1019.47 1020.26 1019.46 1016.70 1014.61 1012.56 1012.28 1012.73 1013.76 1014.88 1015.87 1017.15 1018.40
1016.57 1015.23 1012.85 1013.06 1014.55 1015.07 1014.03 1012.94 1012.45 1011.80 1011.62 1011.82 1011.62 1012.14 1012.41 1012.35 1012.72 1013.06 1012.97 1012.33 1012.09 1012.30 1012.87 1013.61 1014.33 1015.78 1015.60 1015.25 1014.90 1015.80 1016.01 1016.81 1018.15 1018.92 1018.49 1016.98 1012.85 1011.05 1011.47 1012.00 1013.21 1014.61 1015.72 1017.01 1018.30
1016.15 1014.61 1012.61 1013.01 1013.88 1013.62 1012.79 1011.88 1011.93 1011.37 1011.12 1011.26 1011.38 1011.32 1011.29 1011.81 1012.37 1012.25 1011.87 1011.16 1011.02 1011.44 1012.81 1013.37 1014.78 1015.68 1015.31 1015.18 1015.02 1014.86 1015.13 1015.70 1016.70 1017.50 1017.18 1016.42 1011.65 1011.15 1011.45 1011.97 1012.72 1014.02 1015.31 1016.71 1017.67
1015.53 1014.01 1012.62 1012.85 1012.45 1012.25 1011.77 1011.65 1011.53 1011.25 1010.58 1010.80 1010.87 1010.80 1011.29 1011.26 1011.73 1011.95 1011.37 1010.58 1010.91 1011.31 1011.90 1013.10 1014.63 1015.93 1015.78 1015.97 1015.51 1015.09 1014.72 1014.72 1015.18 1015.76 1014.84 1015.90 1011.06 1011.42 1011.64 1012.13 1013.06 1014.22 1015.43 1016.52 1017.81
1015.44 1014.09 1012.88 1012.71 1011.90 1011.74 1011.42 1010.98 1010.76 1010.13 1010.68 1010.88 1010.50 1010.78 1010.75 1010.59 1010.44 1010.93 1011.38 1010.94 1011.06 1011.04 1011.37 1012.21 1013.97 1014.19 1014.06 1014.22 1014.39 1015.15 1014.60 1014.43 1014.86 1014.67 1013.37 1012.75 1011.17 1010.93 1011.94 1012.61 1013.24 1014.20 1015.28 1016.10 1016.84
1014.85 1013.80 1012.97 1012.24 1011.86 1011.43 1011.81 1010.64 1010.22 1010.15 1010.04 1010.42 1010.33 1010.53 1010.18 1010.50 1010.56 1010.64 1011.36 1011.12 1011.71 1011.43 1012.10 1012.36 1013.24 1013.75 1013.07 1013.94 1014.06 1014.45 1014.73 1013.89 1013.99 1012.90 1013.26 1011.04 1012.01 1007.93 1011.20 1011.84 1012.20 1012.84 1014.24 1015.35 1016.33
1014.19 1013.82 1013.47 1012.77 1012.57 1012.22 1011.90 1010.76 1010.44 1009.88 1010.00 1009.81 1010.21 1010.30 1010.49 1010.42 1010.48 1010.02 1010.61 1010.80 1010.48 1011.93 1012.47 1012.69 1012.86 1013.37 1013.29 1013.50 1013.83 1014.21 1013.95 1012.64 1013.36 1012.63 1011.96 1011.28 1010.52 1008.45 1009.85 1010.45 1011.41 1012.10 1013.13 1014.17 1015.17
1013.72 1013.42 1013.44 1012.35 1012.49 1012.41 1011.54 1011.23 1010.88 1010.95 1010.53 1010.40 1010.40 1010.76 1010.61 1010.48 1010.35 1009.53 1009.49 1009.77 1010.07 1010.44 1011.93 1012.80 1012.45 1012.51 1012.36 1012.94 1013.48 1013.15 1009.95 1011.26 1011.06 1010.99 1010.65 1010.58 1007.91 1007.12 1009.30 1009.69 1010.36 1011.09 1011.81 1012.83 1013.79
Wind_Speed
5 5 6 7 8 9 9 10 11 12 12 14 15 13 13 13 15 2 1 0 1 2 4 5 3 3 3 1 2 3 5 2 4 2 4 3 3 2 2 6 5 4 4 5 5
3 4 5 6 6 7 8 9 9 11 11 14 15 16 14 14 3 3 1 1 0 2 2 1 3 0 3 1 3 5 4 1 1 3 2 3 4 5 4 4 4 5 4 5 5
2 2 3 4 4 5 6 7 8 9 11 13 15 16 14 9 2 1 2 1 1 1 3 3 4 2 1 2 1 2 4 1 4 2 4 1 3 3 5 3 3 7 7 5 6
2 1 1 2 3 4 5 6 7 8 10 12 14 17 20 3 2 1 1 1 1 4 3 2 2 2 1 0 1 2 4 3 1 2 3 1 3 2 4 5 7 8 7 6 8
4 3 2 2 3 4 5 6 7 8 9 11 14 15 6 3 3 3 3 1 2 2 1 1 1 1 1 1 2 3 3 2 1 3 2 1 3 4 4 7 8 8 8 8 8
6 5 5 4 4 4 5 6 7 7 9 11 12 13 2 2 3 6 5 2 2 1 1 2 1 2 1 1 2 1 3 5 5 6 3 4 4 2 2 8 8 9 8 7 8
7 7 6 6 5 5 6 7 7 7 8 11 10 3 1 9 1 6 4 1 1 1 2 2 1 4 1 1 1 1 4 6 8 6 5 5 7 10 7 9 9 8 8 8 7
8 7 7 7 6 6 6 7 8 9 9 7 7 2 6 1 2 4 3 2 2 2 3 3 2 3 4 1 2 1 1 2 5 8 4 7 10 6 11 12 10 9 8 8 7
9 9 8 8 7 8 7 8 8 9 8 7 2 2 7 1 3 4 4 4 4 4 4 2 3 3 3 5 4 2 4 5 8 5 6 5 7 1 6 7 8 9 9 9 7
9 9 9 8 7 8 9 8 6 7 4 3 2 2 3 3 1 2 3 6 3 4 3 2 4 3 2 5 6 6 4 5 6 5 2 6 10 5 8 9 10 10 10 9 10
10 10 9 9 7 5 6 3 3 1 2 8 6 3 5 1 2 1 2 4 4 2 5 3 4 9 17 10 6 3 3 5 6 4 6 9 9 11 12 8 9 11 12 12 10
10 10 10 9 7 3 2 1 2 2 7 10 8 6 5 6 2 4 3 6 5 7 5 3 8 13 5 8 8 7 8 11 7 6 5 9 14 10 9 13 15 19 15 13 9
6 9 11 9 5 3 3 3 2 2 3 7 8 7 7 10 8 9 10 6 5 6 9 9 8 5 7 4 5 6 7 5 8 5 4 6 12 10 9 11 8 15 8 12 18
10 8 3 4 6 4 3 4 1 2 3 6 7 5 5 8 6 6 14 8 6 11 6 9 10 3 6 6 8 8 5 7 6 2 6 4 13 7 7 11 12 15 12 15 15
9 10 7 11 1 2 4 5 5 3 6 2 2 4 5 8 4 3 0 1 8 8 8 9 6 7 6 8 8 7 2 1 1 3 4 2 7 3 10 12 13 15 10 14 14
12 11 8 4 3 1 5 3 4 6 11 4 3 5 6 1 2 3 3 3 3 1 2 6 1 4 8 2 4 6 5 6 4 3 8 9 10 16 8 15 8 6 10 13 15
11 12 6 2 2 8 6 3 7 8 2 6 5 6 5 6 4 4 6 6 7 5 6 2 10 3 5 4 3 5 7 2 4 1 9 4 10 15 11 2 9 14 13 15 17
13 15 6 7 5 5 4 4 8 4 5 5 6 7 6 6 4 6 6 6 7 4 3 7 5 13 7 12 7 7 9 7 8 5 5 6 10 9 5 5 4 7 12 13 14
14 3 3 5 6 5 5 10 8 9 5 5 6 5 6 5 6 6 8 6 10 14 9 7 5 3 3 4 10 5 6 6 3 2 2 7 8 10 2 2 3 9 13 15 13
3 4 6 6 11 5 8 12 5 7 4 2 12 6 10 9 8 9 10 7 6 13 6 6 3 2 1 5 3 6 5 5 3 5 7 7 8 13 4 9 7 9 13 13 12
2 4 5 12 10 6 13 11 8 8 8 5 10 7 8 8 11 8 8 5 10 9 17 5 4 2 3 6 11 5 4 3 6 3 4 5 9 6 7 7 13 9 12 15 15
3 5 4 12 8 5 17 12 7 9 13 9 5 8 5 2 5 10 12 8 9 9 13 6 5 4 9 1 2 2 10 10 6 7 6 1 15 3 3 3 10 11 13 13 15
4 4 3 7 9 14 11 16 17 8 7 7 13 12 16 12 7 9 4 4 9 9 12 8 2 2 6 3 1 7 7 14 16 3 13 7 13 2 3 3 4 9 11 13 13
1 4 4 6 10 13 17 18 16 14 29 11 13 10 8 6 6 3 11 5 5 4 10 10 6 9 15 6 6 5 7 9 16 11 10 20 21 15 3 3 5 7 11 15 17
4 5 2 4 13 13 12 13 23 19 13 16 11 16 9 13 22 19 17 6 3 5 4 7 10 10 18 9 2 6 6 13 16 24 11 23 21 34 7 11 12 13 15 17 18
3 3 2 3 1 2 3 8 9 14 14 19 20 14 16 18 16 6 15 10 8 3 8 7 12 10 16 11 9 15 21 20 15 20 23 27 30 27 6 5 7 15 18 19 19
4 2 2 5 3 6 11 3 3 2 8 5 6 6 14 14 11 14 10 13 11 13 11 7 5 8 14 8 9 11 31 21 22 22 24 24 35 31 12 12 12 13 18 19 20
Wind_Direction
59 53 60 58 37 18 16 9 2 357 348 342 340 335 332 329 315 133 142 205 271 307 334 294 299 267 3 69 13 66 62 351 314 78 145 193 106 30 168 101 60 28 102 159 193
59 47 32 41 41 24 8 5 359 349 344 341 337 331 331 334 306 258 286 203 83 23 342 327 311 231 12 63 3 81 94 265 114 345 122 156 116 159 116 117 80 70 57 96 64
121 58 24 23 25 15 10 358 351 348 343 338 333 327 321 319 289 241 261 128 162 328 283 305 305 12 54 78 28 16 162 290 4 57 59 80 104 153 133 160 217 181 158 127 95
231 178 349 346 351 354 353 351 348 345 341 335 328 324 318 192 167 161 236 138 274 313 320 275 322 5 119 96 111 64 274 125 327 49 35 105 312 157 165 167 139 125 145 119 113
263 260 261 285 319 331 334 340 341 337 334 331 328 328 350 2 241 171 158 189 278 304 11 4 45 4 191 31 115 143 322 38 112 145 209 332 249 210 162 161 136 129 111 123 119
266 268 273 276 292 305 315 322 326 328 328 330 331 326 18 278 126 147 160 160 255 224 193 48 99 162 86 54 121 307 342 293 275 222 211 183 254 119 165 158 152 142 140 130 130
252 258 260 267 277 289 299 305 312 316 322 326 332 331 6 237 342 139 158 77 3 24 163 97 63 91 74 12 343 10 324 311 244 205 219 127 289 233 172 166 155 157 153 142 150
252 252 259 263 270 278 289 300 305 306 310 313 320 316 244 354 349 125 139 49 334 20 69 29 39 96 98 206 357 315 37 325 275 154 197 115 268 281 167 156 177 177 175 164 168
243 248 254 264 273 283 290 295 295 297 289 296 4 132 269 326 147 215 152 144 93 29 24 27 65 128 63 99 14 334 245 230 310 160 126 158 256 247 171 178 189 191 191 179 168
237 244 250 253 265 285 296 274 282 312 259 251 277 20 243 190 99 102 59 138 125 114 50 85 64 110 66 113 217 210 216 256 254 227 158 191 253 216 202 196 209 207 194 185 178
230 233 236 243 253 284 331 21 26 317 270 198 185 227 128 109 23 49 224 120 108 129 170 220 131 202 211 189 194 202 203 231 261 247 157 222 237 231 213 221 217 218 207 191 176
236 236 229 230 230 221 306 233 197 197 305 241 238 242 174 169 134 205 139 148 152 191 136 91 233 234 163 200 209 230 251 266 298 217 187 262 253 246 198 217 213 212 208 183 154
305 248 242 229 200 146 203 240 119 102 265 273 205 195 185 157 197 197 159 174 180 176 190 177 214 184 184 225 216 219 195 230 230 302 242 286 268 239 236 221 221 224 195 178 167
348 325 274 336 147 161 219 232 244 75 276 245 213 220 121 135 242 166 188 163 196 195 193 234 233 219 167 213 192 247 225 235 249 286 252 139 288 228 224 228 221 225 184 169 169
356 337 294 139 143 232 302 159 117 46 253 164 113 313 153 164 134 350 130 126 178 180 147 236 181 189 195 208 180 221 153 158 205 231 336 224 302 238 220 241 233 221 179 171 164
339 338 293 219 215 186 108 72 97 208 223 204 135 136 123 257 92 114 119 51 151 116 271 218 6 160 187 101 158 132 68 38 40 81 265 174 191 294 212 227 258 172 180 155 154
326 326 286 186 224 155 131 113 242 197 199 186 186 166 165 162 176 146 162 168 161 135 227 195 223 205 134 128 50 114 105 298 331 320 241 296 207 252 292 277 211 192 174 165 160
322 313 242 218 146 141 168 157 224 247 214 160 125 121 178 140 207 178 158 175 233 196 118 166 265 165 187 198 168 186 154 163 218 213 278 314 239 248 234 330 323 175 170 150 151
323 262 216 200 173 155 245 212 201 186 246 126 116 153 207 181 146 151 201 216 189 185 181 185 262 75 155 150 137 201 191 190 44 54 355 227 286 293 145 350 67 132 145 157 156
316 277 226 176 164 179 226 245 242 239 180 145 184 231 184 181 158 172 176 212 213 183 187 205 161 37 341 85 319 153 166 93 83 217 238 274 257 234 229 231 187 170 167 163 153
274 258 238 152 161 182 227 221 222 209 222 200 198 206 239 179 177 190 194 260 189 195 182 162 116 222 136 207 176 146 197 164 134 199 208 279 255 206 197 212 194 187 174 165 161
259 243 203 149 195 192 226 212 238 217 224 224 268 206 183 172 192 200 201 206 187 147 175 186 129 192 208 171 1 195 190 175 161 196 231 144 265 165 211 261 181 179 168 168 163
263 255 240 179 212 215 227 226 235 242 194 202 220 200 202 195 187 219 210 233 171 150 158 176 163 217 322 334 296 219 200 216 217 98 219 181 255 51 32 76 162 154 165 161 154
242 267 220 210 244 230 224 232 225 210 235 260 239 208 252 232 200 180 225 223 211 187 143 109 165 188 224 188 139 182 209 206 208 223 225 230 270 251 142 184 169 169 168 168 167
210 234 201 217 233 233 244 240 227 232 213 206 241 238 205 237 231 218 217 202 193 189 189 153 210 205 246 223 102 171 217 216 211 231 215 251 235 258 216 219 204 187 170 174 174
243 211 189 254 233 245 287 214 271 245 221 219 226 212 228 239 225 239 228 227 195 152 191 185 223 175 245 235 222 245 250 237 232 240 240 247 255 256 234 227 176 180 178 179 179
233 253 239 198 186 211 233 221 289 312 243 350 251 239 239 250 275 258 236 228 208 181 181 176 198 160 240 213 198 232 240 237 235 238 230 233 241 264 240 230 193 187 184 181 185